Location: ?????????
(41.2393°N, 22.9479°E)
Time: 13:11:43
(UTC+00:00)

Meteor 2-3 Rocket - Pass Details

Date: 17 November 2025
Orbit: 841 x 884 km, 81.2° (Epoch: 06 December)

Event Time Altitude Azimuth Distance (km) Brightness Sun altitude
Rises 16:57:30 0° 354° (N) 3,459 6.9 -20.6°
Reaches altitude 10° 17:00:01 10° 360° (N) 2,510 6.1 -21.1°
Maximum altitude 17:05:35 53° 77° (ENE) 1,047 3.8 -22.2°
Enters shadow 17:07:29 37° 130° (SE) 1,302 4.3 -22.5°
